STARLINK-36889, 68006

Orbit data source: Space-Track

STARLINK-36889, 68006 is a payload satellite owned by SpaceX/Seattle (US) in LEO that was launched on Fri, 27 Feb 2026 UTC via an FALCON 9 launch vehicle from the Air Force Eastern Test Range (AFETR). Payload-class satellites include a variety of spacecraft equipped with specific instruments for various scientific and technological missions. These include communications satellites like Starlink; space stations such as the ISS; scientific satellites like the Hubble; Earth observation satellites from companies like Planet Labs, Umbra, and HawkEye 360; GPS; miniature CubeSats for education and research; and military/defense satellites.

Loading next visibility...
Identifier
68006, 2026-039W
Orbit
LEO
Country
Flag of USUS
Related business
Manufacturer
SpaceX/Seattle
Mission
Operational Commercial Communications
Bus & Motor
STARLINK V2MO, Unknown motor
Mass
575 kg wet, ~530 kg dry
Launch date (UTC)
2026-02-27 (2 months ago)
Launch vehicle
FALCON 9
Launch site
Air Force Eastern Test Range (AFETR)
Object type
Payload
Rocket body
Debris
Shape & HBR
Box + 2 Pan, 17.7 m
Radar Cross Section
36.964 m²

Expand to show TLE details & history
Last TLE update: 2 days ago

TLE from 2 days ago
0 STARLINK-36889
1 68006U 26039W   26110.48160967  .00002914  00000-0  11543-3 0  9994
2 68006  43.0038 173.0202 0002527 280.9218  79.1350 15.27567538  8092
Epoch: 2026-04-20T11:33Z
TLE epoch observation values (Epoch: 2026-04-20T11:33:31.075Z)
Latitude
0.00003°
Longitude
151.06963°
Altitude
482.536 km
Speed
7.626 km/s
True Right ascension
11h 32m 04s
True Declination
0° 00' 00"
Sunlit
Object was in full shadow at epoch
Visualization orbit readout
Latitude
Unknown
Longitude
Unknown
Altitude
Unknown
Speed
Unknown
Apparent Right ascension
Unknown
Apparent Declination
Unknown
Sunlit
N/A
Visualization observer readout
Local Sidereal Time
18:05:05
Azimuth
Unknown
Elevation
Unknown
Doppler factor
Unknown
Orbital elements
Apogee altitude
486.765 km
Perigee altitude
483.297 km
Semi-major axis
6,863.168 km
Eccentricity
0.00025
Inclination
43.0038°
RAAN
173.0202°
Arg. of periapsis
280.9218°
True anomaly
79.16344°
Mean anomaly
79.135°
Eccentric anomaly
79.14922°
Mean motion
3.8173 °/min
Orbital period
94.31 mins
BSTAR
0.00011543
Loading maneuver chart data...
Computing Atmospheric mass density...
Loading historical data...
Loading historical data...
Loading historical data...
Loading historical data...
Loading historical data...
Loading historical data...
Loading historical data...

Documentation

Showing up to 5 results
|